Disclaimer

Please do not use the information listed here in-flight or in-navigation, as they are not provided to us by the airports but are provided by volunteers, so they might be outdated.

Search


Regions


Airport information page

Radio informations:
Tower (TWR) - 118.5 MHz
ARRIVAL - 123.575 MHz
RAPCON WEST - 123.575 MHz

Airport informations:
Latitude: 51° 26' 56.73" N
Longitude: 004° 20' 31.31" E
Elevation: 63 feet - 19 meters
Operating hours: Remarks
Operating agency: Military
Timezone: UTC+1(+2DT) - Last Sunday in March to last Sunday in October
Fuel: Unknown fuel type or whether there is any fuel.

Runway information:
07/25 - 7996 x 148 feet< - >2437 x 45 meters

Recent METARs:
EHWO 171401Z AUTO 30016KT 250V360 3500 R25/P3000N +DZRA FEW006 BKN010 BKN014 FEW015CB 02/01 Q1006 YLO
EHWO 171433Z AUTO 27010KT 230V320 9999 BKN021 BKN026 OVC030 03/02 Q1006 WHT
EHWO 171457Z AUTO 27017KT 230V310 9999 SCT024 SCT030 BKN042 04/01 Q1006 WHT

Airport on the map: